QFA492 YMML-YSSY

Flight info

Callsign QFA492
Flight time 1h 7m
Altitude 37000
Route DOSEL Y59 RIVET
Aircraft B738/M-SDE2E3FGHIRWXY/LB1

Departure

Time 2026-05-04 10:12
Airport Melbourne Airport (YMML)

Arrival

Time 2026-05-04 11:19
Airport Sydney Kingsford Smith International Airport (YSSY)
Time Latitude Longitude Altitude Speed Heading
2026-05-04 09:35 -37.66719 144.84905 396 ft 0 kts 82°
2026-05-04 09:56 -37.66722 144.84877 399 ft 4 kts 80°
2026-05-04 09:56 -37.66729 144.84844 398 ft 4 kts 59°
2026-05-04 09:57 -37.66742 144.84829 396 ft 4 kts 341°
2026-05-04 09:57 -37.66734 144.84824 399 ft 4 kts 336°
2026-05-04 09:57 -37.66710 144.84814 398 ft 2 kts 348°
2026-05-04 09:57 -37.66708 144.84814 398 ft 0 kts 348°
2026-05-04 10:00 -37.66653 144.84612 399 ft 13 kts 263°
2026-05-04 10:00 -37.66663 144.84499 395 ft 13 kts 260°
2026-05-04 10:02 -37.67278 144.84284 379 ft 24 kts 172°
2026-05-04 10:04 -37.67861 144.84220 359 ft 0 kts 263°
2026-05-04 10:05 -37.67864 144.84188 358 ft 8 kts 262°
2026-05-04 10:05 -37.67872 144.84117 362 ft 2 kts 262°
2026-05-04 10:06 -37.67873 144.84108 359 ft 0 kts 262°
2026-05-04 10:10 -37.67874 144.84104 357 ft 4 kts 263°
2026-05-04 10:10 -37.67882 144.83991 356 ft 8 kts 285°
2026-05-04 10:11 -37.67856 144.83965 357 ft 0 kts 348°
2026-05-04 10:11 -37.67810 144.83955 361 ft 30 kts 351°
2026-05-04 10:11 -37.67352 144.83871 371 ft 100 kts 352°
2026-05-04 10:11 -37.66499 144.83721 579 ft 136 kts 352°
2026-05-04 10:12 -37.65878 144.83603 1047 ft 138 kts 353°
2026-05-04 10:12 -37.64905 144.83424 1744 ft 143 kts 346°
2026-05-04 10:12 -37.63819 144.83202 2055 ft 174 kts 345°
2026-05-04 10:12 -37.62537 144.82940 2308 ft 199 kts 345°
2026-05-04 10:13 -37.61096 144.82649 2549 ft 220 kts 345°
2026-05-04 10:13 -37.59504 144.82389 2816 ft 243 kts 355°
2026-05-04 10:13 -37.57811 144.82996 3489 ft 262 kts 19°
2026-05-04 10:13 -37.56276 144.84302 4339 ft 275 kts 38°
2026-05-04 10:14 -37.54953 144.86097 5095 ft 283 kts 43°
2026-05-04 10:14 -37.53667 144.87946 5951 ft 284 kts 44°
2026-05-04 10:16 -37.43901 145.01719 10945 ft 341 kts 44°
2026-05-04 10:16 -37.42244 145.04011 11120 ft 366 kts 44°
2026-05-04 10:16 -37.40487 145.06441 11448 ft 383 kts 44°
2026-05-04 10:16 -37.38680 145.08945 12103 ft 389 kts 44°
2026-05-04 10:17 -37.36875 145.11449 12893 ft 393 kts 44°
2026-05-04 10:17 -37.35030 145.14003 13697 ft 397 kts 44°
2026-05-04 10:19 -37.21583 145.32524 18853 ft 423 kts 44°
2026-05-04 10:19 -37.19593 145.35256 19498 ft 426 kts 44°
2026-05-04 10:19 -37.17583 145.38012 20138 ft 429 kts 44°
2026-05-04 10:19 -37.15619 145.40845 20754 ft 434 kts 48°
2026-05-04 10:20 -37.13803 145.43889 21343 ft 438 kts 50°
2026-05-04 10:20 -37.12025 145.47021 21904 ft 443 kts 51°
2026-05-04 10:20 -37.10276 145.50150 22464 ft 446 kts 51°
2026-05-04 10:20 -37.08489 145.53340 23023 ft 449 kts 51°
2026-05-04 10:21 -37.06682 145.56544 23563 ft 452 kts 51°
2026-05-04 10:21 -37.04850 145.59762 23979 ft 456 kts 50°
2026-05-04 10:21 -37.02999 145.62995 24417 ft 459 kts 50°
2026-05-04 10:21 -37.01126 145.66250 24819 ft 462 kts 49°
2026-05-04 10:22 -36.97333 145.72817 25574 ft 469 kts 49°
2026-05-04 10:22 -36.95415 145.76133 25970 ft 472 kts 48°
2026-05-04 10:22 -36.93507 145.79428 26351 ft 475 kts 47°
2026-05-04 10:23 -36.91566 145.82778 26746 ft 477 kts 47°
2026-05-04 10:23 -36.89618 145.86139 27151 ft 479 kts 46°
2026-05-04 10:25 -36.75829 146.09847 30316 ft 477 kts 44°
2026-05-04 10:25 -36.73876 146.13191 30704 ft 478 kts 44°
2026-05-04 10:25 -36.71910 146.16546 30971 ft 481 kts 44°
2026-05-04 10:25 -36.69929 146.19922 31292 ft 482 kts 44°
2026-05-04 10:26 -36.67949 146.23297 31689 ft 482 kts 44°
2026-05-04 10:26 -36.65975 146.26663 32109 ft 481 kts 44°
2026-05-04 10:26 -36.64000 146.30028 32483 ft 481 kts 44°
2026-05-04 10:26 -36.62023 146.33391 32779 ft 482 kts 45°
2026-05-04 10:27 -36.60041 146.36756 33093 ft 483 kts 45°
2026-05-04 10:27 -36.58054 146.40128 33423 ft 484 kts 45°
2026-05-04 10:27 -36.56065 146.43502 33786 ft 484 kts 45°
2026-05-04 10:27 -36.54073 146.46877 34124 ft 484 kts 45°
2026-05-04 10:28 -36.52107 146.50206 34399 ft 485 kts 45°
2026-05-04 10:28 -36.50110 146.53582 34685 ft 485 kts 45°
2026-05-04 10:28 -36.48106 146.56967 34941 ft 486 kts 45°
2026-05-04 10:28 -36.46096 146.60357 35116 ft 489 kts 45°
2026-05-04 10:29 -36.44076 146.63761 35363 ft 490 kts 45°
2026-05-04 10:29 -36.42054 146.67167 35678 ft 490 kts 45°
2026-05-04 10:29 -36.40035 146.70567 35978 ft 489 kts 45°
2026-05-04 10:29 -36.38010 146.73972 36241 ft 490 kts 45°
2026-05-04 10:30 -36.35983 146.77375 36479 ft 491 kts 46°
2026-05-04 10:30 -36.33947 146.80790 36717 ft 492 kts 46°
2026-05-04 10:30 -36.31937 146.84157 36970 ft 493 kts 46°
2026-05-04 10:31 -36.27925 146.90889 37031 ft 472 kts 46°
2026-05-04 10:32 -36.13815 147.14380 37058 ft 496 kts 46°
2026-05-04 10:33 -36.09727 147.21167 37061 ft 495 kts 46°
2026-05-04 10:33 -36.05617 147.27978 37060 ft 494 kts 45°
2026-05-04 10:34 -36.01510 147.34768 37061 ft 492 kts 45°
2026-05-04 10:34 -35.97417 147.41522 37064 ft 491 kts 45°
2026-05-04 10:35 -35.93357 147.48208 37074 ft 489 kts 45°
2026-05-04 10:35 -35.89277 147.54914 37085 ft 488 kts 45°
2026-05-04 10:36 -35.85208 147.61592 37089 ft 487 kts 45°
2026-05-04 10:36 -35.81135 147.68257 37087 ft 487 kts 45°
2026-05-04 10:37 -35.77056 147.74915 37089 ft 487 kts 45°
2026-05-04 10:37 -35.72989 147.81541 37099 ft 489 kts 45°
2026-05-04 10:39 -35.58507 148.05052 37101 ft 496 kts 45°
2026-05-04 10:40 -35.54325 148.11812 37100 ft 497 kts 44°
2026-05-04 10:40 -35.50138 148.18569 37084 ft 497 kts 44°
2026-05-04 10:41 -35.45976 148.25274 37081 ft 497 kts 44°
2026-05-04 10:41 -35.41788 148.32004 37116 ft 497 kts 44°
2026-05-04 10:42 -35.37582 148.38732 37109 ft 498 kts 44°
2026-05-04 10:42 -35.33371 148.45457 37098 ft 497 kts 44°
2026-05-04 10:43 -35.29143 148.52152 37100 ft 496 kts 43°
2026-05-04 10:45 -35.11804 148.78190 37092 ft 489 kts 38°
2026-05-04 10:45 -35.07041 148.84045 37100 ft 485 kts 36°
2026-05-04 10:46 -35.02145 148.89663 37103 ft 481 kts 33°
2026-05-04 10:46 -34.97186 148.95050 37096 ft 481 kts 32°
2026-05-04 10:47 -34.92012 149.00096 37128 ft 470 kts 24°
2026-05-04 10:47 -34.86519 149.04370 37091 ft 468 kts 23°
2026-05-04 10:49 -34.64078 149.19675 37098 ft 462 kts 19°
2026-05-04 10:49 -34.61230 149.21542 36546 ft 466 kts 19°
2026-05-04 10:50 -34.58401 149.23412 35964 ft 462 kts 19°
2026-05-04 10:51 -34.40713 149.40115 30294 ft 510 kts 62°
2026-05-04 10:52 -34.39512 149.44169 29279 ft 511 kts 63°
2026-05-04 10:52 -34.38289 149.48201 28205 ft 510 kts 62°
2026-05-04 10:52 -34.37032 149.52202 27261 ft 507 kts 61°
2026-05-04 10:54 -34.28380 149.78715 22124 ft 467 kts 61°
2026-05-04 10:54 -34.27193 149.82337 21403 ft 460 kts 61°
2026-05-04 10:56 -34.19257 150.06442 16474 ft 423 kts 62°
2026-05-04 10:56 -34.18189 150.09676 15837 ft 418 kts 62°
2026-05-04 10:56 -34.17243 150.12989 15190 ft 418 kts 68°
2026-05-04 10:57 -34.16499 150.16370 14538 ft 415 kts 70°
2026-05-04 10:57 -34.15808 150.19742 13869 ft 412 kts 71°
2026-05-04 10:57 -34.15127 150.23078 13167 ft 407 kts 71°
2026-05-04 10:57 -34.14442 150.26374 12492 ft 402 kts 71°
2026-05-04 10:58 -34.13754 150.29617 11825 ft 397 kts 70°
2026-05-04 10:58 -34.13063 150.32823 11209 ft 392 kts 70°
2026-05-04 10:58 -34.12382 150.35959 10964 ft 378 kts 70°
2026-05-04 10:58 -34.11728 150.38968 10801 ft 363 kts 70°
2026-05-04 10:59 -34.11097 150.41864 10639 ft 351 kts 70°
2026-05-04 10:59 -34.10485 150.44661 10478 ft 339 kts 70°
2026-05-04 10:59 -34.09895 150.47359 10346 ft 327 kts 70°
2026-05-04 10:59 -34.09322 150.49974 10211 ft 317 kts 70°
2026-05-04 11:00 -34.08776 150.52471 10082 ft 308 kts 70°
2026-05-04 11:01 -34.05147 150.69314 8104 ft 291 kts 70°
2026-05-04 11:02 -34.04639 150.71668 7816 ft 289 kts 70°
2026-05-04 11:02 -34.04133 150.74005 7539 ft 288 kts 70°
2026-05-04 11:05 -34.00465 151.06346 7002 ft 301 kts 92°
2026-05-04 11:06 -34.00676 151.08850 6994 ft 298 kts 92°
2026-05-04 11:06 -34.00887 151.11311 7001 ft 294 kts 92°
2026-05-04 11:06 -34.01096 151.13746 6994 ft 291 kts 92°
2026-05-04 11:06 -34.01306 151.16160 6995 ft 288 kts 92°
2026-05-04 11:08 -34.03649 151.32343 6646 ft 296 kts 133°
2026-05-04 11:10 -34.16881 151.38681 3181 ft 274 kts 163°
2026-05-04 11:12 -34.24092 151.34442 2285 ft 198 kts 301°
2026-05-04 11:12 -34.23419 151.32981 2208 ft 201 kts 303°
2026-05-04 11:12 -34.22535 151.31677 2092 ft 202 kts 323°
2026-05-04 11:12 -34.21436 151.30636 2052 ft 199 kts 323°
2026-05-04 11:13 -34.20361 151.29613 1996 ft 195 kts 325°
2026-05-04 11:13 -34.19173 151.28829 1998 ft 196 kts 334°
2026-05-04 11:13 -34.17952 151.28077 1994 ft 199 kts 332°
2026-05-04 11:13 -34.16750 151.27290 1998 ft 200 kts 331°
2026-05-04 11:14 -34.15537 151.26470 2022 ft 197 kts 331°
2026-05-04 11:14 -34.14392 151.25682 1988 ft 181 kts 331°
2026-05-04 11:14 -34.13349 151.24958 1982 ft 166 kts 330°
2026-05-04 11:16 -34.06541 151.21837 1821 ft 143 kts 346°
2026-05-04 11:16 -34.05598 151.21593 1754 ft 137 kts 346°
2026-05-04 11:16 -34.04682 151.21355 1587 ft 132 kts 346°
2026-05-04 11:17 -34.03798 151.21126 1444 ft 127 kts 347°
2026-05-04 11:17 -34.02946 151.20905 1272 ft 123 kts 347°
2026-05-04 11:19 -33.96893 151.19330 35 ft 130 kts 349°
2026-05-04 11:19 -33.96132 151.19131 27 ft 86 kts 348°
2026-05-04 11:19 -33.95740 151.19031 30 ft 47 kts 347°
2026-05-04 11:19 -33.95452 151.18947 25 ft 37 kts 340°
2026-05-04 11:20 -33.95289 151.18843 27 ft 19 kts 322°
2026-05-04 11:20 -33.95190 151.18741 28 ft 18 kts 319°
2026-05-04 11:20 -33.95099 151.18636 29 ft 18 kts 305°
2026-05-04 11:20 -33.95098 151.18523 29 ft 13 kts 258°
2026-05-04 11:22 -33.94816 151.17869 29 ft 26 kts 348°
2026-05-04 11:22 -33.94691 151.17837 29 ft 11 kts 348°
2026-05-04 11:23 -33.94658 151.17829 29 ft 1 kts 347°
2026-05-04 11:23 -33.94657 151.17828 29 ft 0 kts 347°
2026-05-04 11:24 -33.94275 151.17717 29 ft 17 kts 345°
2026-05-04 11:25 -33.94164 151.17682 28 ft 16 kts 346°
2026-05-04 11:25 -33.94054 151.17651 27 ft 16 kts 348°
2026-05-04 11:25 -33.93969 151.17629 28 ft 8 kts 347°
2026-05-04 11:26 -33.93952 151.17625 28 ft 0 kts 347°
2026-05-04 11:27 -33.93053 151.17529 29 ft 18 kts 191°
2026-05-04 11:28 -33.93123 151.17541 29 ft 5 kts 132°
2026-05-04 11:28 -33.93140 151.17583 29 ft 8 kts 115°
2026-05-04 11:28 -33.93154 151.17622 29 ft 0 kts 114°